User: anonymous   Login
Location: Caltech
(34.1382°N, 118.1253°W)
Time: 09:27:23
(UTC-08:00)
Language:

SO-67 - Orbit

View from above orbital plane
View from above orbital plane
View from above satellite
View from above satellite

Ground track
Ground track

The orbit data is extracted from the following two-line orbital elements,

1 35870U 09049F   17321.13810924  .00007013  00000-0  10398-3 0  9992
2 35870  97.0965 336.5930 0001484 138.9743 263.4700 15.55547070456985
Epoch (UTC): 17 November 2017 03:18:52
Eccentricity: 0.0001484
inclination: 97.0965°
perigee height: 399 km
apogee height: 401 km
right ascension of ascending node: 336.5930°
argument of perigee: 138.9743°
revolutions per day: 15.55547070
mean anomaly at epoch: 263.4700°
orbit number at epoch: 45698

The dashed part of the orbit path shows where the satellite is in the earth's shadow,  

DLR